Location: M?digepalle
(16.1753°N, 80.3496°E)
Time: 09:10:50
(UTC+00:00)

X-37B - Pass Details

Date: 29 October 2020
Orbit: 384 x 389 km, 45.0° (Epoch: 12 November)

Event Time Altitude Azimuth Distance (km) Brightness Sun altitude
Exits shadow 22:30:22 11° 108° (ESE) 1,318 4.1 -30.3°
Drops below altitude 10° 22:30:48 10° 100° (E) 1,399 4.3 -30.2°
Sets 22:33:40 0° 72° (ENE) 2,255 5.4 -29.5°
